BAW64 EGLL-FACT

Flight info

Callsign BAW64
Flight time N/A
Altitude 23000
Route MODMI M185 MID L612 HAWKE/N0473F350 UL612 VEULE DCT DEKOD DCT DISAK DCT DIRMO DCT ETAMO DCT ADEKA DCT MOKDI DCT MEN DCT AMLIR DCT FJR DCT OBLAD DCT KAMER UM998 CSO UA605 AMIRA/N0473F370 UA605 DJA UB730 DIR UA607 FL UA403 ISDET/N0475F390 UA403 BZ DCT KSA UT943 IMVEX/N0473F400 UT943 UNLOK/N0475F410 UT943 VEDRY/N0475F400 UN185 OKLOK/N0375F240 Q23 DUMDO DCT ERDAS ERDAS1B
Aircraft B772/H-SDE2E3FGHIJ5LORVWXY/LB1D1

Departure

Time 2026-05-08 01:01
Airport London Heathrow Airport (EGLL)

Arrival

Time N/A
Airport Cape Town International Airport (FACT)
Time Latitude Longitude Altitude Speed Heading
2026-05-08 00:36 51.47213 -0.48024 91 ft 0 kts 270°
2026-05-08 00:50 51.47213 -0.48019 90 ft 2 kts 270°
2026-05-08 00:50 51.47213 -0.47990 90 ft 3 kts 270°
2026-05-08 00:51 51.47213 -0.47957 90 ft 3 kts 270°
2026-05-08 00:51 51.47213 -0.47926 90 ft 2 kts 270°
2026-05-08 00:51 51.47214 -0.47901 90 ft 3 kts 255°
2026-05-08 00:51 51.47221 -0.47877 90 ft 3 kts 206°
2026-05-08 00:52 51.47239 -0.47871 90 ft 3 kts 178°
2026-05-08 00:52 51.47254 -0.47872 90 ft 1 kts 180°
2026-05-08 00:52 51.47258 -0.47872 90 ft 0 kts 180°
2026-05-08 00:55 51.47235 -0.47871 93 ft 7 kts 179°
2026-05-08 00:55 51.47181 -0.47871 92 ft 8 kts 179°
2026-05-08 00:55 51.47128 -0.47870 92 ft 8 kts 179°
2026-05-08 00:56 51.47075 -0.47869 93 ft 8 kts 179°
2026-05-08 00:56 51.47021 -0.47868 90 ft 8 kts 180°
2026-05-08 00:56 51.46968 -0.47868 90 ft 8 kts 180°
2026-05-08 00:56 51.46915 -0.47868 90 ft 8 kts 180°
2026-05-08 00:57 51.46861 -0.47868 94 ft 8 kts 180°
2026-05-08 00:57 51.46808 -0.47868 90 ft 8 kts 180°
2026-05-08 00:57 51.46755 -0.47868 90 ft 8 kts 180°
2026-05-08 00:57 51.46701 -0.47868 95 ft 8 kts 182°
2026-05-08 00:58 51.46663 -0.47919 90 ft 8 kts 247°
2026-05-08 00:58 51.46655 -0.48004 94 ft 8 kts 267°
2026-05-08 00:58 51.46653 -0.48089 92 ft 8 kts 269°
2026-05-08 00:58 51.46653 -0.48179 94 ft 8 kts 270°
2026-05-08 00:59 51.46653 -0.48271 92 ft 8 kts 270°
2026-05-08 00:59 51.46653 -0.48363 93 ft 8 kts 270°
2026-05-08 00:59 51.46640 -0.48450 91 ft 8 kts 230°
2026-05-08 00:59 51.46585 -0.48466 94 ft 8 kts 178°
2026-05-08 01:00 51.46527 -0.48463 95 ft 8 kts 178°
2026-05-08 01:00 51.46481 -0.48424 93 ft 8 kts 109°
2026-05-08 01:00 51.46481 -0.48272 93 ft 30 kts 89°
2026-05-08 01:00 51.46481 -0.47575 92 ft 94 kts 90°
2026-05-08 01:01 51.46486 -0.46214 95 ft 149 kts 90°
2026-05-08 01:01 51.46492 -0.44314 216 ft 184 kts 90°
2026-05-08 01:01 51.46492 -0.42259 880 ft 182 kts 92°
2026-05-08 01:01 51.46161 -0.40304 1418 ft 190 kts 124°
2026-05-08 01:02 51.45348 -0.38665 1976 ft 191 kts 135°
2026-05-08 01:02 51.44611 -0.37831 2035 ft 201 kts 159°
2026-05-08 01:02 51.42777 -0.36882 2273 ft 219 kts 161°
2026-05-08 01:02 51.41777 -0.36319 2411 ft 232 kts 160°
2026-05-08 01:03 51.40173 -0.35720 2618 ft 243 kts 184°
2026-05-08 01:03 51.38556 -0.36575 3035 ft 249 kts 207°
2026-05-08 01:03 51.37008 -0.37879 3528 ft 253 kts 204°
2026-05-08 01:03 51.35412 -0.39120 4159 ft 255 kts 204°
2026-05-08 01:04 51.33811 -0.40359 4773 ft 258 kts 204°
2026-05-08 01:04 51.32207 -0.41609 5334 ft 261 kts 205°
2026-05-08 01:04 51.30568 -0.42893 5907 ft 264 kts 205°
2026-05-08 01:04 51.28909 -0.44192 6447 ft 267 kts 205°
2026-05-08 01:05 51.27235 -0.45510 7031 ft 269 kts 206°
2026-05-08 01:05 51.25556 -0.46857 7569 ft 272 kts 206°
2026-05-08 01:05 51.23856 -0.48225 8106 ft 274 kts 206°
2026-05-08 01:05 51.22138 -0.49585 8645 ft 277 kts 205°
2026-05-08 01:06 51.20398 -0.50933 9159 ft 280 kts 205°
2026-05-08 01:06 51.18648 -0.52285 9688 ft 282 kts 205°
2026-05-08 01:06 51.16870 -0.53655 10235 ft 283 kts 206°
2026-05-08 01:06 51.15052 -0.55058 10450 ft 299 kts 206°
2026-05-08 01:07 51.13117 -0.56554 10604 ft 318 kts 206°
2026-05-08 01:07 51.11094 -0.58114 10776 ft 336 kts 206°
2026-05-08 01:07 51.08955 -0.59762 11199 ft 346 kts 206°
2026-05-08 01:07 51.06673 -0.60989 11549 ft 353 kts 187°
2026-05-08 01:08 51.04216 -0.60645 12183 ft 360 kts 165°
2026-05-08 01:08 51.01935 -0.58995 12966 ft 361 kts 149°
2026-05-08 01:08 50.99815 -0.56753 13541 ft 369 kts 148°
2026-05-08 01:08 50.97687 -0.54439 14234 ft 373 kts 147°
2026-05-08 01:09 50.95544 -0.52101 14999 ft 375 kts 147°
2026-05-08 01:09 50.93389 -0.49763 15728 ft 377 kts 147°
2026-05-08 01:09 50.91208 -0.47416 16417 ft 380 kts 148°
2026-05-08 01:09 50.89003 -0.45059 17101 ft 384 kts 148°
2026-05-08 01:10 50.86804 -0.42721 17780 ft 387 kts 148°
2026-05-08 01:10 50.84561 -0.40344 18446 ft 390 kts 148°
2026-05-08 01:10 50.82292 -0.37943 19088 ft 393 kts 148°
2026-05-08 01:10 50.80003 -0.35525 19712 ft 397 kts 148°
2026-05-08 01:11 50.77699 -0.33095 20337 ft 400 kts 148°
2026-05-08 01:11 50.75368 -0.30637 20955 ft 403 kts 148°
2026-05-08 01:11 50.73023 -0.28168 21553 ft 407 kts 148°
2026-05-08 01:11 50.70659 -0.25685 22148 ft 410 kts 148°
2026-05-08 01:12 50.68281 -0.23191 22721 ft 413 kts 148°
2026-05-08 01:12 50.65877 -0.20672 23260 ft 416 kts 148°
2026-05-08 01:12 50.63461 -0.18142 23805 ft 419 kts 148°
2026-05-08 01:12 50.61023 -0.15592 24325 ft 422 kts 148°
2026-05-08 01:13 50.58570 -0.13028 24807 ft 425 kts 148°
2026-05-08 01:13 50.56099 -0.10448 25266 ft 428 kts 148°
2026-05-08 01:13 50.53609 -0.07852 25706 ft 431 kts 148°
2026-05-08 01:13 50.51094 -0.05233 26122 ft 434 kts 148°
2026-05-08 01:14 50.48566 -0.02601 26531 ft 437 kts 148°
2026-05-08 01:14 50.46059 0.00002 26925 ft 439 kts 148°
2026-05-08 01:14 50.43504 0.02654 27280 ft 442 kts 148°
2026-05-08 01:14 50.40923 0.05337 27519 ft 449 kts 149°
2026-05-08 01:15 50.38273 0.08088 27787 ft 453 kts 149°
2026-05-08 01:15 50.35675 0.10785 28142 ft 455 kts 149°
2026-05-08 01:15 50.33027 0.13534 28540 ft 456 kts 149°
2026-05-08 01:15 50.30375 0.16284 28882 ft 458 kts 149°
2026-05-08 01:16 50.27722 0.19034 29191 ft 460 kts 149°
2026-05-08 01:16 50.25038 0.21812 29488 ft 462 kts 149°
2026-05-08 01:16 50.22348 0.24590 29767 ft 464 kts 149°
2026-05-08 01:16 50.19640 0.27384 30032 ft 467 kts 149°
2026-05-08 01:17 50.16922 0.30177 30294 ft 468 kts 149°
2026-05-08 01:17 50.14194 0.32973 30545 ft 470 kts 149°
2026-05-08 01:17 50.11455 0.35778 30772 ft 472 kts 149°
2026-05-08 01:17 50.08704 0.38592 30984 ft 474 kts 149°
2026-05-08 01:18 50.05947 0.41412 31227 ft 474 kts 149°
2026-05-08 01:18 50.03186 0.44231 31531 ft 473 kts 149°
2026-05-08 01:18 50.00431 0.47041 31856 ft 472 kts 149°
2026-05-08 01:18 49.97726 0.49796 32134 ft 471 kts 149°
2026-05-08 01:19 49.94988 0.52581 32445 ft 470 kts 149°
2026-05-08 01:19 49.92253 0.55358 32726 ft 469 kts 149°
2026-05-08 01:19 49.89524 0.58127 32966 ft 468 kts 149°
2026-05-08 01:19 49.86794 0.60891 33224 ft 468 kts 149°
2026-05-08 01:20 49.84063 0.63636 33491 ft 467 kts 150°
2026-05-08 01:20 49.81318 0.66333 33754 ft 466 kts 150°
2026-05-08 01:20 49.78573 0.68994 33996 ft 466 kts 150°
2026-05-08 01:20 49.75826 0.71646 34245 ft 465 kts 150°
2026-05-08 01:21 49.73079 0.74296 34473 ft 465 kts 151°
2026-05-08 01:21 49.70327 0.76953 34685 ft 465 kts 151°
2026-05-08 01:21 49.67584 0.79602 34907 ft 465 kts 150°
2026-05-08 01:21 49.64837 0.82256 35120 ft 465 kts 150°
2026-05-08 01:22 49.62130 0.84870 35313 ft 466 kts 150°
2026-05-08 01:22 49.59381 0.87522 35492 ft 466 kts 150°
2026-05-08 01:22 49.56634 0.90170 35702 ft 466 kts 150°
2026-05-08 01:22 49.53880 0.92820 35903 ft 466 kts 150°
2026-05-08 01:23 49.51131 0.95464 36082 ft 466 kts 151°
2026-05-08 01:23 49.48388 0.98097 36240 ft 466 kts 151°
2026-05-08 01:23 49.45629 1.00739 36386 ft 467 kts 151°
2026-05-08 01:23 49.42861 1.03387 36533 ft 468 kts 151°
2026-05-08 01:24 49.40096 1.06031 36687 ft 468 kts 151°
2026-05-08 01:24 49.37333 1.08666 36854 ft 468 kts 151°
2026-05-08 01:24 49.34567 1.11301 36963 ft 469 kts 151°
2026-05-08 01:25 49.29010 1.16586 37042 ft 469 kts 151°
2026-05-08 01:25 49.23479 1.21836 37043 ft 465 kts 151°
2026-05-08 01:26 49.18035 1.26988 37048 ft 462 kts 151°
2026-05-08 01:26 49.12571 1.32143 37050 ft 461 kts 151°
2026-05-08 01:27 49.07113 1.37278 37045 ft 461 kts 151°
2026-05-08 01:27 49.01649 1.42407 37049 ft 461 kts 151°
2026-05-08 01:28 48.96161 1.47545 37042 ft 462 kts 151°
2026-05-08 01:28 48.90682 1.52661 37044 ft 462 kts 152°
2026-05-08 01:29 48.85238 1.57733 37050 ft 462 kts 152°
2026-05-08 01:29 48.79746 1.62835 37044 ft 462 kts 152°
2026-05-08 01:30 48.74253 1.67923 37049 ft 462 kts 152°
2026-05-08 01:30 48.68757 1.73003 37048 ft 462 kts 152°
2026-05-08 01:31 48.63257 1.78074 37047 ft 462 kts 152°
2026-05-08 01:31 48.57802 1.83088 37048 ft 462 kts 152°
2026-05-08 01:32 48.52293 1.88141 37042 ft 462 kts 152°
2026-05-08 01:32 48.46794 1.93171 37050 ft 462 kts 152°
2026-05-08 01:33 48.41292 1.98193 37044 ft 462 kts 152°
2026-05-08 01:33 48.35795 2.03197 37042 ft 462 kts 152°
2026-05-08 01:34 48.30224 2.08001 37027 ft 458 kts 159°
2026-05-08 01:34 48.24212 2.10935 37040 ft 452 kts 172°
2026-05-08 01:35 48.18045 2.12202 37046 ft 450 kts 175°
2026-05-08 01:35 48.11836 2.13387 37030 ft 449 kts 179°
2026-05-08 01:36 48.05606 2.13772 37041 ft 448 kts 181°
2026-05-08 01:36 47.99375 2.14055 37045 ft 448 kts 181°
2026-05-08 01:37 47.93136 2.14378 37049 ft 449 kts 181°
2026-05-08 01:37 47.86894 2.14734 37045 ft 449 kts 180°
2026-05-08 01:38 47.80636 2.15099 37046 ft 450 kts 180°
2026-05-08 01:38 47.74377 2.15463 37052 ft 450 kts 180°
2026-05-08 01:39 47.68114 2.15825 37043 ft 450 kts 180°
2026-05-08 01:39 47.61895 2.16183 37040 ft 450 kts 180°
2026-05-08 01:40 47.55631 2.16543 37033 ft 450 kts 180°
2026-05-08 01:40 47.49373 2.16901 37042 ft 450 kts 180°
2026-05-08 01:41 47.43100 2.17260 37030 ft 450 kts 180°
2026-05-08 01:41 47.36843 2.17616 37026 ft 450 kts 180°
2026-05-08 01:42 47.30637 2.17970 37030 ft 449 kts 180°
2026-05-08 01:42 47.24379 2.18325 37018 ft 449 kts 180°
2026-05-08 01:43 47.18126 2.18679 37019 ft 449 kts 180°
2026-05-08 01:43 47.11870 2.19138 37017 ft 451 kts 175°
2026-05-08 01:44 47.05719 2.21097 37026 ft 456 kts 165°
2026-05-08 01:44 46.99754 2.24499 37028 ft 463 kts 160°
2026-05-08 01:45 46.93810 2.28060 37023 ft 466 kts 161°
2026-05-08 01:45 46.87770 2.31600 37025 ft 468 kts 161°
2026-05-08 01:46 46.81863 2.35692 37019 ft 472 kts 150°
2026-05-08 01:46 46.76386 2.40977 37008 ft 471 kts 149°
2026-05-08 01:47 46.70938 2.46233 37002 ft 468 kts 149°
2026-05-08 01:47 46.65508 2.51411 37004 ft 465 kts 150°
2026-05-08 01:48 46.57431 2.59056 37010 ft 463 kts 150°
2026-05-08 01:48 46.52032 2.64148 37012 ft 463 kts 150°
2026-05-08 01:49 46.46629 2.69237 37015 ft 463 kts 150°
2026-05-08 01:49 46.41217 2.74321 37021 ft 463 kts 150°
2026-05-08 01:50 46.35801 2.79399 37018 ft 464 kts 150°
2026-05-08 01:50 46.31297 2.83613 37022 ft 464 kts 150°
2026-05-08 01:51 46.25864 2.88683 37021 ft 465 kts 150°
2026-05-08 01:51 46.20427 2.93744 37017 ft 465 kts 150°
2026-05-08 01:52 46.14983 2.98801 37022 ft 466 kts 150°
2026-05-08 01:52 46.09525 3.03859 37020 ft 466 kts 150°
2026-05-08 01:53 46.04068 3.08905 37019 ft 466 kts 150°
2026-05-08 01:53 45.98610 3.13940 37015 ft 465 kts 151°
2026-05-08 01:54 45.92774 3.17415 37027 ft 455 kts 171°
2026-05-08 01:54 45.86526 3.18050 37023 ft 448 kts 184°
2026-05-08 01:55 45.80288 3.17864 37019 ft 448 kts 183°
2026-05-08 01:55 45.74041 3.17732 37021 ft 449 kts 183°
2026-05-08 01:56 45.67793 3.17637 37019 ft 449 kts 183°
2026-05-08 01:56 45.61526 3.17555 37018 ft 450 kts 183°
2026-05-08 01:57 45.55306 3.17476 37021 ft 450 kts 183°
2026-05-08 01:57 45.49035 3.17394 37018 ft 450 kts 183°
2026-05-08 01:58 45.42769 3.17312 37019 ft 450 kts 183°
2026-05-08 01:58 45.36496 3.17232 37023 ft 450 kts 183°
2026-05-08 01:59 45.30279 3.17149 37019 ft 450 kts 183°
2026-05-08 01:59 45.24018 3.17065 37016 ft 450 kts 183°
2026-05-08 02:00 45.17758 3.16986 37012 ft 449 kts 183°
2026-05-08 02:00 45.11517 3.16906 37006 ft 448 kts 183°
2026-05-08 02:01 45.05274 3.16824 37012 ft 448 kts 183°
2026-05-08 02:01 44.99080 3.16743 37007 ft 447 kts 183°
2026-05-08 02:02 44.92860 3.16662 37008 ft 447 kts 183°
2026-05-08 02:02 44.86644 3.16572 37003 ft 446 kts 183°
2026-05-08 02:03 44.80439 3.16481 36999 ft 445 kts 183°
2026-05-08 02:03 44.74280 3.16392 37003 ft 445 kts 183°
2026-05-08 02:04 44.68089 3.16304 36999 ft 444 kts 183°
2026-05-08 02:04 44.61906 3.16216 37000 ft 444 kts 183°
2026-05-08 02:05 44.55716 3.16262 37000 ft 444 kts 182°
2026-05-08 02:05 44.49534 3.16407 36999 ft 443 kts 181°
2026-05-08 02:06 44.43464 3.18069 37003 ft 451 kts 162°
2026-05-08 02:06 44.37935 3.22329 37002 ft 457 kts 149°
2026-05-08 02:07 44.32699 3.27417 36993 ft 459 kts 149°
2026-05-08 02:07 44.27437 3.32489 36993 ft 460 kts 150°
2026-05-08 02:08 44.22148 3.37517 36995 ft 460 kts 150°
2026-05-08 02:08 44.16871 3.42495 36995 ft 460 kts 150°
2026-05-08 02:09 44.11560 3.47494 37005 ft 460 kts 150°
2026-05-08 02:09 44.06258 3.52473 37001 ft 460 kts 150°
2026-05-08 02:10 44.00944 3.57452 36998 ft 460 kts 150°
2026-05-08 02:10 43.95629 3.62423 36985 ft 460 kts 150°
2026-05-08 02:11 43.90319 3.67381 36989 ft 459 kts 150°
2026-05-08 02:11 43.85018 3.72315 36991 ft 458 kts 150°
2026-05-08 02:12 43.79729 3.77231 36992 ft 457 kts 151°
2026-05-08 02:12 43.74479 3.82093 36995 ft 457 kts 151°
2026-05-08 02:13 43.69187 3.86996 36989 ft 457 kts 151°
2026-05-08 02:13 43.63900 3.91881 36993 ft 457 kts 151°
2026-05-08 02:14 43.58597 3.96720 36988 ft 456 kts 153°
2026-05-08 02:14 43.52951 4.00534 36999 ft 450 kts 161°
2026-05-08 02:15 43.47195 4.03939 36988 ft 450 kts 161°
2026-05-08 02:15 43.41448 4.07374 36993 ft 450 kts 161°
2026-05-08 02:16 43.35785 4.10770 36993 ft 451 kts 161°
2026-05-08 02:16 43.30040 4.14220 36988 ft 451 kts 161°
2026-05-08 02:17 43.24439 4.17577 36993 ft 451 kts 161°
2026-05-08 02:17 43.18680 4.21023 36991 ft 452 kts 161°
2026-05-08 02:18 43.12908 4.24464 36990 ft 452 kts 161°
2026-05-08 02:18 43.07126 4.27909 36992 ft 453 kts 161°
2026-05-08 02:19 43.01382 4.31323 36990 ft 453 kts 161°
2026-05-08 02:19 42.95608 4.34744 36991 ft 453 kts 161°
2026-05-08 02:20 42.89835 4.38162 36989 ft 452 kts 161°
2026-05-08 02:20 42.84050 4.41579 36992 ft 452 kts 161°
2026-05-08 02:21 42.78272 4.44985 36989 ft 452 kts 161°
2026-05-08 02:21 42.72504 4.48380 36991 ft 452 kts 161°
2026-05-08 02:22 42.66727 4.51768 36990 ft 452 kts 161°
2026-05-08 02:22 42.60988 4.55129 36991 ft 452 kts 161°
2026-05-08 02:23 42.55203 4.58509 36992 ft 452 kts 161°
2026-05-08 02:23 42.49416 4.61882 36991 ft 453 kts 161°
2026-05-08 02:24 42.43621 4.65262 36986 ft 454 kts 160°
2026-05-08 02:24 42.37814 4.68644 36993 ft 453 kts 161°
2026-05-08 02:25 42.32006 4.72005 36989 ft 453 kts 161°
2026-05-08 02:25 42.26239 4.75341 36985 ft 453 kts 161°
2026-05-08 02:26 42.20451 4.78684 36981 ft 453 kts 161°
2026-05-08 02:26 42.14656 4.82026 36982 ft 453 kts 161°
2026-05-08 02:27 42.08857 4.85364 36981 ft 453 kts 161°
2026-05-08 02:27 42.03061 4.88691 36981 ft 452 kts 161°
2026-05-08 02:28 41.97269 4.92011 36978 ft 452 kts 161°
2026-05-08 02:28 41.91472 4.95324 36984 ft 454 kts 161°
2026-05-08 02:29 41.85663 4.98643 36982 ft 454 kts 161°
2026-05-08 02:29 41.79807 5.01856 36979 ft 452 kts 166°
2026-05-08 02:30 41.73781 5.04245 36985 ft 452 kts 168°
2026-05-08 02:30 41.67774 5.06589 36981 ft 453 kts 168°
2026-05-08 02:31 41.61718 5.08978 36972 ft 454 kts 167°
2026-05-08 02:31 41.55658 5.11381 36972 ft 455 kts 167°
2026-05-08 02:32 41.49589 5.13785 36972 ft 455 kts 167°
2026-05-08 02:32 41.43511 5.16189 36971 ft 455 kts 168°
2026-05-08 02:33 41.37439 5.18585 36972 ft 455 kts 168°
2026-05-08 02:33 41.31351 5.20981 36972 ft 456 kts 168°
2026-05-08 02:34 41.25309 5.23357 36971 ft 456 kts 168°
2026-05-08 02:34 41.19223 5.25745 36972 ft 456 kts 168°
2026-05-08 02:35 41.13128 5.28130 36967 ft 456 kts 168°
2026-05-08 02:35 41.07043 5.30510 36961 ft 456 kts 168°
2026-05-08 02:36 41.00955 5.32883 36964 ft 456 kts 168°
2026-05-08 02:36 40.94871 5.35253 36963 ft 456 kts 168°
2026-05-08 02:37 40.88811 5.37606 36963 ft 456 kts 168°
2026-05-08 02:37 40.82709 5.39970 36963 ft 457 kts 168°
2026-05-08 02:38 40.76601 5.42332 36964 ft 457 kts 168°
2026-05-08 02:38 40.71521 5.44296 36962 ft 458 kts 168°
2026-05-08 02:39 40.64405 5.47041 36964 ft 458 kts 168°
2026-05-08 02:39 40.58274 5.49401 36957 ft 459 kts 168°
2026-05-08 02:40 40.53131 5.51376 36953 ft 459 kts 168°
2026-05-08 02:40 40.47040 5.53712 36953 ft 459 kts 168°
2026-05-08 02:41 40.40897 5.56063 36953 ft 459 kts 168°
2026-05-08 02:41 40.34754 5.58409 36944 ft 459 kts 168°
2026-05-08 02:42 40.28610 5.60752 36945 ft 459 kts 168°
2026-05-08 02:42 40.22468 5.63089 36947 ft 459 kts 168°
2026-05-08 02:43 40.16375 5.65404 36954 ft 459 kts 168°
2026-05-08 02:43 40.10240 5.67729 36954 ft 459 kts 168°
2026-05-08 02:44 40.04104 5.70051 36954 ft 458 kts 168°
2026-05-08 02:44 39.97978 5.72365 36953 ft 458 kts 168°
2026-05-08 02:45 39.91842 5.74678 36953 ft 458 kts 168°
2026-05-08 02:45 39.85719 5.76983 36954 ft 458 kts 168°
2026-05-08 02:46 39.79625 5.79272 36946 ft 459 kts 168°
2026-05-08 02:46 39.73490 5.81572 36945 ft 459 kts 168°
2026-05-08 02:47 39.67349 5.83868 36948 ft 459 kts 168°
2026-05-08 02:47 39.61204 5.86164 36956 ft 460 kts 169°
2026-05-08 02:48 39.55044 5.88460 36953 ft 461 kts 169°
2026-05-08 02:48 39.48883 5.90753 36949 ft 461 kts 169°
2026-05-08 02:49 39.42699 5.93050 36946 ft 462 kts 169°
2026-05-08 02:49 39.36511 5.95346 36941 ft 463 kts 169°
2026-05-08 02:50 39.30304 5.97642 36952 ft 464 kts 169°
2026-05-08 02:50 39.24075 5.99943 36954 ft 466 kts 169°
2026-05-08 02:51 39.17879 6.02228 36963 ft 466 kts 169°
2026-05-08 02:51 39.11633 6.04528 36952 ft 466 kts 169°
2026-05-08 02:52 39.05393 6.06821 36954 ft 467 kts 170°
2026-05-08 02:52 38.99138 6.09018 36949 ft 463 kts 174°
2026-05-08 02:53 38.92790 6.10313 36968 ft 460 kts 178°
2026-05-08 02:53 38.86446 6.11520 36962 ft 461 kts 178°
2026-05-08 02:54 38.80125 6.12749 36962 ft 462 kts 178°
2026-05-08 02:54 38.73759 6.14005 36963 ft 463 kts 178°
2026-05-08 02:55 38.64184 6.15899 36962 ft 465 kts 178°
2026-05-08 02:56 38.57777 6.17163 36961 ft 466 kts 178°
2026-05-08 02:56 38.51393 6.18420 36954 ft 468 kts 178°
2026-05-08 02:57 38.44938 6.19688 36955 ft 469 kts 178°
2026-05-08 02:57 38.38481 6.20955 36954 ft 470 kts 178°
2026-05-08 02:58 38.32006 6.22223 36955 ft 471 kts 178°
2026-05-08 02:58 38.25519 6.23491 36956 ft 472 kts 178°
2026-05-08 02:59 38.19028 6.24757 36966 ft 472 kts 178°
2026-05-08 02:59 38.12525 6.26024 36963 ft 473 kts 178°
2026-05-08 03:00 38.06064 6.27280 36963 ft 473 kts 178°
2026-05-08 03:00 37.99562 6.28541 36963 ft 473 kts 178°
2026-05-08 03:01 37.93055 6.29803 36962 ft 472 kts 178°
2026-05-08 03:01 37.86562 6.31058 36963 ft 472 kts 179°
2026-05-08 03:02 37.80072 6.32310 36962 ft 471 kts 179°
2026-05-08 03:02 37.73577 6.33561 36963 ft 471 kts 179°
2026-05-08 03:03 37.67099 6.34807 36964 ft 470 kts 179°
2026-05-08 03:03 37.60672 6.36041 36970 ft 470 kts 179°
2026-05-08 03:04 37.54204 6.37280 36975 ft 469 kts 179°
2026-05-08 03:04 37.47754 6.38513 36970 ft 468 kts 179°
2026-05-08 03:05 37.41311 6.39744 36973 ft 468 kts 179°
2026-05-08 03:05 37.34884 6.40969 36971 ft 467 kts 179°
2026-05-08 03:06 37.28460 6.42191 36973 ft 466 kts 179°
2026-05-08 03:06 37.22049 6.43410 36971 ft 465 kts 179°
2026-05-08 03:07 37.15644 6.44626 36968 ft 465 kts 179°
2026-05-08 03:07 37.09205 6.45841 36982 ft 471 kts 179°
2026-05-08 03:08 37.02726 6.47059 36973 ft 477 kts 179°
2026-05-08 03:08 36.96147 6.48303 36985 ft 479 kts 179°
2026-05-08 03:09 36.89549 6.49548 36985 ft 479 kts 179°
2026-05-08 03:09 36.82956 6.50789 36980 ft 479 kts 179°
2026-05-08 03:10 36.76381 6.52026 36977 ft 475 kts 179°
2026-05-08 03:10 36.69868 6.53247 36973 ft 472 kts 179°
2026-05-08 03:11 36.63394 6.54461 36977 ft 469 kts 179°
2026-05-08 03:11 36.56937 6.55663 36985 ft 469 kts 179°
2026-05-08 03:12 36.50525 6.56856 36996 ft 469 kts 179°
2026-05-08 03:12 36.44055 6.58060 36996 ft 470 kts 179°
2026-05-08 03:13 36.37569 6.59265 36994 ft 472 kts 179°
2026-05-08 03:13 36.31065 6.60472 36989 ft 473 kts 178°
2026-05-08 03:14 36.24571 6.61948 36988 ft 475 kts 175°
2026-05-08 03:14 36.18083 6.63637 36997 ft 476 kts 175°
2026-05-08 03:15 36.11633 6.65316 36991 ft 476 kts 175°
2026-05-08 03:15 36.05142 6.66981 36994 ft 476 kts 175°
2026-05-08 03:16 35.98659 6.68634 36995 ft 476 kts 175°
2026-05-08 03:16 35.92222 6.70270 37003 ft 474 kts 175°
2026-05-08 03:17 35.85767 6.71910 37010 ft 473 kts 175°
2026-05-08 03:17 35.79332 6.73542 37013 ft 471 kts 175°
2026-05-08 03:18 35.72922 6.75164 37017 ft 470 kts 175°
2026-05-08 03:18 35.66516 6.76784 37020 ft 470 kts 175°
2026-05-08 03:19 35.60104 6.78403 37011 ft 470 kts 175°
2026-05-08 03:19 35.53685 6.80019 37008 ft 471 kts 175°
2026-05-08 03:20 35.47305 6.81623 37007 ft 471 kts 175°
2026-05-08 03:20 35.40875 6.83238 37000 ft 471 kts 175°
2026-05-08 03:21 35.34448 6.84849 36984 ft 471 kts 175°
2026-05-08 03:21 35.28020 6.86459 36995 ft 471 kts 175°
2026-05-08 03:22 35.21607 6.88062 36976 ft 470 kts 175°
2026-05-08 03:22 35.15200 6.89662 36975 ft 469 kts 175°
2026-05-08 03:23 35.08850 6.91244 36983 ft 468 kts 175°
2026-05-08 03:23 35.02464 6.92831 36971 ft 468 kts 175°
2026-05-08 03:24 34.96078 6.94417 36977 ft 468 kts 175°
2026-05-08 03:24 34.89690 6.96000 36972 ft 468 kts 175°
2026-05-08 03:25 34.83301 6.97583 36969 ft 467 kts 175°
2026-05-08 03:25 34.76965 6.99158 36964 ft 467 kts 174°
2026-05-08 03:26 34.70591 7.00771 36961 ft 467 kts 174°
2026-05-08 03:26 34.64222 7.02386 36952 ft 467 kts 174°
2026-05-08 03:27 34.57861 7.03997 36951 ft 467 kts 174°
2026-05-08 03:27 34.51509 7.05598 36944 ft 466 kts 174°
2026-05-08 03:28 34.45160 7.07196 36937 ft 465 kts 174°
2026-05-08 03:28 34.38821 7.08789 36919 ft 465 kts 174°
2026-05-08 03:29 34.33545 7.10113 36911 ft 465 kts 174°
2026-05-08 03:29 34.27204 7.11702 36912 ft 464 kts 174°
2026-05-08 03:30 34.17764 7.14063 36916 ft 463 kts 174°
2026-05-08 03:31 34.05142 7.17211 36903 ft 463 kts 174°
2026-05-08 03:32 33.95661 7.19569 36895 ft 462 kts 174°
2026-05-08 03:32 33.89373 7.21131 36886 ft 460 kts 175°
2026-05-08 03:33 33.83154 7.22673 36889 ft 459 kts 175°
2026-05-08 03:33 33.76906 7.24221 36884 ft 457 kts 175°
2026-05-08 03:34 33.70673 7.25760 36890 ft 457 kts 175°
2026-05-08 03:34 33.64447 7.27296 36892 ft 457 kts 175°
2026-05-08 03:35 33.58218 7.28830 36884 ft 457 kts 175°
2026-05-08 03:35 33.52029 7.30353 36888 ft 457 kts 175°
2026-05-08 03:36 33.45793 7.31886 36891 ft 457 kts 175°
2026-05-08 03:36 33.39562 7.33415 36893 ft 457 kts 175°
2026-05-08 03:37 33.33334 7.34941 36894 ft 457 kts 175°
2026-05-08 03:37 33.27108 7.36464 36901 ft 456 kts 175°
2026-05-08 03:38 33.20928 7.37975 36893 ft 455 kts 175°
2026-05-08 03:38 33.14717 7.39490 36897 ft 454 kts 175°
2026-05-08 03:39 33.08520 7.40999 36893 ft 454 kts 175°
2026-05-08 03:39 33.02333 7.42505 36900 ft 453 kts 175°
2026-05-08 03:40 32.96205 7.43994 36892 ft 452 kts 175°
2026-05-08 03:40 32.90045 7.45488 36892 ft 451 kts 175°
2026-05-08 03:41 32.83893 7.46978 36892 ft 450 kts 176°
2026-05-08 03:41 32.77757 7.48463 36901 ft 449 kts 176°
2026-05-08 03:42 32.71634 7.49941 36893 ft 448 kts 176°
2026-05-08 03:42 32.65530 7.51413 36888 ft 447 kts 176°
2026-05-08 03:43 32.59441 7.52880 36883 ft 446 kts 176°
2026-05-08 03:43 32.53413 7.54331 36891 ft 444 kts 176°
2026-05-08 03:44 32.47360 7.55784 36890 ft 443 kts 176°
2026-05-08 03:44 32.41331 7.57231 36890 ft 441 kts 177°
2026-05-08 03:45 32.35326 7.58668 36891 ft 439 kts 177°
2026-05-08 03:45 32.29334 7.60101 36888 ft 438 kts 177°
2026-05-08 03:46 32.23367 7.61527 36889 ft 437 kts 177°
2026-05-08 03:46 32.17399 7.62951 36892 ft 437 kts 177°
2026-05-08 03:47 32.11451 7.64367 36888 ft 436 kts 177°
2026-05-08 03:47 32.05554 7.65772 36889 ft 435 kts 177°
2026-05-08 03:48 31.99615 7.67183 36873 ft 435 kts 177°
2026-05-08 03:48 31.93687 7.68588 36885 ft 434 kts 178°
2026-05-08 03:49 31.87756 7.69994 36879 ft 435 kts 178°
2026-05-08 03:49 31.81829 7.71398 36879 ft 434 kts 178°
2026-05-08 03:50 31.75898 7.72800 36884 ft 434 kts 178°
2026-05-08 03:50 31.69972 7.74222 36880 ft 435 kts 177°
2026-05-08 03:51 31.64038 7.75662 36879 ft 436 kts 177°
2026-05-08 03:51 31.58130 7.77092 36880 ft 436 kts 177°
2026-05-08 03:52 31.52169 7.78531 36872 ft 437 kts 177°
2026-05-08 03:52 31.46196 7.79970 36880 ft 438 kts 177°
2026-05-08 03:53 31.40215 7.81409 36882 ft 439 kts 177°
2026-05-08 03:53 31.34224 7.82848 36881 ft 440 kts 177°
2026-05-08 03:54 31.28213 7.84291 36879 ft 441 kts 177°
2026-05-08 03:54 31.22205 7.85730 36881 ft 441 kts 177°
2026-05-08 03:55 31.16221 7.87163 36877 ft 442 kts 177°
2026-05-08 03:55 31.10185 7.88605 36881 ft 443 kts 177°
2026-05-08 03:56 31.04141 7.90048 36896 ft 444 kts 177°
2026-05-08 03:56 30.98085 7.91492 36895 ft 445 kts 177°
2026-05-08 03:57 30.92010 7.92938 36897 ft 445 kts 177°
2026-05-08 03:57 30.85925 7.94385 36905 ft 447 kts 177°
2026-05-08 03:58 30.79822 7.95835 36893 ft 447 kts 177°
2026-05-08 03:58 30.73713 7.97284 36902 ft 449 kts 177°
2026-05-08 03:59 30.67622 7.98727 36894 ft 449 kts 178°
2026-05-08 03:59 30.61488 8.00178 36899 ft 450 kts 178°
2026-05-08 04:00 30.55353 8.01626 36899 ft 450 kts 178°
2026-05-08 04:00 30.49204 8.03079 36902 ft 450 kts 178°
2026-05-08 04:01 30.43051 8.04529 36912 ft 451 kts 178°
2026-05-08 04:01 30.36900 8.05976 36908 ft 451 kts 178°
2026-05-08 04:02 30.30736 8.07425 36906 ft 451 kts 178°
2026-05-08 04:02 30.24570 8.08873 36905 ft 451 kts 178°
2026-05-08 04:03 30.18462 8.10306 36911 ft 451 kts 178°
2026-05-08 04:03 30.09224 8.12469 36906 ft 451 kts 178°
2026-05-08 04:04 30.03077 8.13909 36931 ft 451 kts 178°
2026-05-08 04:04 29.96908 8.15375 36899 ft 453 kts 178°
2026-05-08 04:05 29.90739 8.16843 36924 ft 452 kts 178°
2026-05-08 04:05 29.84578 8.18308 36924 ft 452 kts 178°
2026-05-08 04:06 29.78410 8.19769 36931 ft 453 kts 178°
2026-05-08 04:06 29.72234 8.21229 36931 ft 452 kts 178°
2026-05-08 04:07 29.66110 8.22677 36932 ft 452 kts 178°
2026-05-08 04:07 29.59940 8.24131 36922 ft 452 kts 178°
2026-05-08 04:08 29.53780 8.25583 36926 ft 452 kts 178°
2026-05-08 04:08 29.47621 8.27032 36933 ft 452 kts 178°
2026-05-08 04:09 29.41459 8.28479 36936 ft 452 kts 178°
2026-05-08 04:09 29.35296 8.29928 36937 ft 452 kts 178°
2026-05-08 04:10 29.29117 8.31376 36937 ft 453 kts 178°
2026-05-08 04:10 29.22933 8.32823 36935 ft 453 kts 178°
2026-05-08 04:11 29.16743 8.34271 36935 ft 454 kts 178°
2026-05-08 04:11 29.10591 8.35707 36946 ft 454 kts 178°
2026-05-08 04:12 29.04398 8.37153 36946 ft 454 kts 178°
2026-05-08 04:12 28.98201 8.38597 36944 ft 454 kts 178°
2026-05-08 04:13 28.92008 8.40038 36946 ft 454 kts 178°
2026-05-08 04:13 28.85808 8.41479 36944 ft 455 kts 178°
2026-05-08 04:14 28.79606 8.42919 36950 ft 455 kts 178°
2026-05-08 04:14 28.73438 8.44349 36962 ft 455 kts 178°
2026-05-08 04:15 28.67231 8.45788 36964 ft 455 kts 178°
2026-05-08 04:15 28.61015 8.47224 36962 ft 456 kts 178°
2026-05-08 04:16 28.54797 8.48660 36961 ft 456 kts 178°
2026-05-08 04:16 28.48564 8.50101 36962 ft 456 kts 178°
2026-05-08 04:17 28.42340 8.51534 36967 ft 456 kts 178°
2026-05-08 04:17 28.36106 8.52968 36965 ft 457 kts 178°
2026-05-08 04:18 28.30923 8.54160 36959 ft 457 kts 178°
2026-05-08 04:18 28.24697 8.55592 36960 ft 456 kts 178°
2026-05-08 04:19 28.18463 8.57022 36959 ft 456 kts 178°
2026-05-08 04:19 28.12277 8.58440 36964 ft 456 kts 178°
2026-05-08 04:20 28.06049 8.59870 36961 ft 456 kts 178°
2026-05-08 04:20 27.99831 8.61307 36964 ft 456 kts 178°
2026-05-08 04:21 27.93605 8.62748 36958 ft 457 kts 178°
2026-05-08 04:21 27.87403 8.64177 36968 ft 458 kts 179°
2026-05-08 04:22 27.81145 8.65617 36964 ft 459 kts 178°
2026-05-08 04:22 27.74875 8.67060 36964 ft 460 kts 178°
2026-05-08 04:23 27.68596 8.68504 36962 ft 461 kts 178°
2026-05-08 04:23 27.62304 8.69949 36964 ft 462 kts 178°
2026-05-08 04:24 27.55996 8.71394 36961 ft 462 kts 178°
2026-05-08 04:24 27.49686 8.72840 36962 ft 462 kts 178°
2026-05-08 04:25 27.43380 8.74283 36971 ft 462 kts 179°
2026-05-08 04:25 27.37067 8.75726 36972 ft 463 kts 179°
2026-05-08 04:26 27.30787 8.77159 36974 ft 464 kts 179°
2026-05-08 04:26 27.24449 8.78604 36968 ft 465 kts 179°
2026-05-08 04:27 27.18095 8.80051 36985 ft 465 kts 179°
2026-05-08 04:27 27.11739 8.81496 36970 ft 466 kts 179°
2026-05-08 04:28 27.05382 8.82942 36972 ft 466 kts 179°
2026-05-08 04:28 26.99019 8.84386 36972 ft 467 kts 179°
2026-05-08 04:29 26.92654 8.85839 36973 ft 467 kts 179°
2026-05-08 04:29 26.86314 8.87292 36971 ft 468 kts 179°
2026-05-08 04:30 26.79930 8.88755 36971 ft 468 kts 179°
2026-05-08 04:30 26.73547 8.90215 36971 ft 468 kts 179°
2026-05-08 04:31 26.67165 8.91671 36975 ft 468 kts 179°
2026-05-08 04:31 26.60770 8.93127 36970 ft 469 kts 179°
2026-05-08 04:32 26.54361 8.94586 36975 ft 469 kts 179°
2026-05-08 04:32 26.47959 8.96043 36975 ft 469 kts 179°
2026-05-08 04:33 26.41554 8.97498 36969 ft 470 kts 179°
2026-05-08 04:33 26.35138 8.98953 36975 ft 470 kts 179°
2026-05-08 04:34 26.28754 9.00400 36970 ft 471 kts 179°
2026-05-08 04:34 26.22331 9.01855 36974 ft 471 kts 179°
2026-05-08 04:35 26.15902 9.03309 36976 ft 471 kts 179°
2026-05-08 04:35 26.09468 9.04762 36974 ft 472 kts 179°
2026-05-08 04:36 26.03065 9.06208 36964 ft 472 kts 179°
2026-05-08 04:36 25.96622 9.07664 36982 ft 472 kts 179°
2026-05-08 04:37 25.90161 9.09130 36977 ft 475 kts 179°
2026-05-08 04:37 25.83683 9.10601 36984 ft 476 kts 178°
2026-05-08 04:38 25.77175 9.12078 36985 ft 478 kts 179°
2026-05-08 04:38 25.70654 9.13556 36985 ft 479 kts 178°
2026-05-08 04:39 25.64156 9.15028 36991 ft 479 kts 178°
2026-05-08 04:39 25.57618 9.16507 36985 ft 478 kts 178°
2026-05-08 04:40 25.51100 9.17979 36991 ft 478 kts 178°
2026-05-08 04:40 25.44574 9.19452 37000 ft 478 kts 178°
2026-05-08 04:41 25.38057 9.20918 36999 ft 478 kts 178°
2026-05-08 04:41 25.31564 9.22379 36998 ft 479 kts 178°
2026-05-08 04:42 25.25033 9.23847 37001 ft 478 kts 178°
2026-05-08 04:42 25.18493 9.25317 37010 ft 479 kts 178°
2026-05-08 04:43 25.11985 9.26776 37008 ft 479 kts 178°
2026-05-08 04:43 25.05441 9.28241 37016 ft 480 kts 178°
2026-05-08 04:44 24.98888 9.29708 37010 ft 481 kts 178°
2026-05-08 04:44 24.92330 9.31174 37016 ft 481 kts 178°
2026-05-08 04:45 24.85795 9.32634 37027 ft 482 kts 178°
2026-05-08 04:45 24.79205 9.34104 37020 ft 483 kts 178°
2026-05-08 04:46 24.72622 9.35572 37013 ft 483 kts 178°
2026-05-08 04:46 24.66039 9.37039 37016 ft 483 kts 178°
2026-05-08 04:47 24.59442 9.38505 37021 ft 483 kts 178°
2026-05-08 04:47 24.52854 9.39967 37015 ft 484 kts 178°
2026-05-08 04:48 24.46294 9.41424 37019 ft 484 kts 178°
2026-05-08 04:48 24.39680 9.42891 37020 ft 485 kts 178°
2026-05-08 04:49 24.33047 9.44373 37015 ft 487 kts 176°
2026-05-08 04:49 24.26530 9.46827 37019 ft 503 kts 164°
2026-05-08 04:50 24.20334 9.50579 37018 ft 511 kts 157°
2026-05-08 04:50 24.14258 9.54558 37018 ft 512 kts 157°
2026-05-08 04:51 24.08124 9.58539 37021 ft 512 kts 157°
2026-05-08 04:51 24.01968 9.62487 37018 ft 513 kts 158°
2026-05-08 04:52 23.95794 9.66424 37015 ft 513 kts 157°
2026-05-08 04:52 23.89668 9.70331 37021 ft 513 kts 157°
2026-05-08 04:53 23.83490 9.74266 37020 ft 513 kts 157°
2026-05-08 04:53 23.77303 9.78202 37017 ft 513 kts 157°
2026-05-08 04:54 23.71140 9.82121 37021 ft 513 kts 157°
2026-05-08 04:54 23.65008 9.86014 37031 ft 513 kts 157°
2026-05-08 04:55 23.58839 9.89927 37025 ft 513 kts 157°
2026-05-08 04:55 23.52697 9.93820 37027 ft 512 kts 157°
2026-05-08 04:56 23.46530 9.97723 37030 ft 512 kts 157°
2026-05-08 04:56 23.40363 10.01622 37029 ft 512 kts 157°
2026-05-08 04:57 23.34193 10.05518 37032 ft 513 kts 157°
2026-05-08 04:57 23.28022 10.09411 37029 ft 513 kts 156°
2026-05-08 04:58 23.21839 10.13308 37033 ft 514 kts 156°
2026-05-08 04:58 23.15652 10.17202 37028 ft 514 kts 156°
2026-05-08 04:59 23.09505 10.21068 37025 ft 513 kts 156°
2026-05-08 04:59 23.03323 10.24953 37029 ft 513 kts 156°
2026-05-08 05:00 22.97142 10.28832 37027 ft 513 kts 156°
2026-05-08 05:00 22.90961 10.32706 37028 ft 513 kts 156°
2026-05-08 05:01 22.84773 10.36581 37026 ft 513 kts 156°
2026-05-08 05:01 22.78584 10.40453 37015 ft 513 kts 156°
2026-05-08 05:02 22.72395 10.44321 37009 ft 514 kts 156°
2026-05-08 05:02 22.66204 10.48188 37004 ft 513 kts 156°
2026-05-08 05:03 22.60073 10.52070 37010 ft 514 kts 154°
2026-05-08 05:03 22.53988 10.56163 37010 ft 515 kts 153°
2026-05-08 05:04 22.47916 10.60290 37007 ft 515 kts 153°
2026-05-08 05:04 22.41832 10.64389 37000 ft 515 kts 154°
2026-05-08 05:05 22.35741 10.68464 36999 ft 514 kts 154°
2026-05-08 05:05 22.29657 10.72524 37000 ft 514 kts 154°
2026-05-08 05:06 22.23573 10.76583 37000 ft 514 kts 154°
2026-05-08 05:06 22.17535 10.80609 36997 ft 514 kts 153°
2026-05-08 05:07 22.11451 10.84661 37005 ft 514 kts 153°
2026-05-08 05:07 22.05363 10.88712 36999 ft 514 kts 153°
2026-05-08 05:08 21.99274 10.92759 36998 ft 514 kts 153°
2026-05-08 05:08 21.93171 10.96811 37003 ft 514 kts 153°
2026-05-08 05:09 21.88103 11.00173 36996 ft 515 kts 153°
2026-05-08 05:09 21.81006 11.04877 36990 ft 515 kts 153°
2026-05-08 05:10 21.72852 11.10273 36991 ft 514 kts 153°
2026-05-08 05:11 21.66753 11.14305 36992 ft 514 kts 153°
2026-05-08 05:11 21.60698 11.18305 36989 ft 513 kts 153°
2026-05-08 05:12 21.54604 11.22325 36990 ft 513 kts 153°
2026-05-08 05:12 21.48511 11.26341 36992 ft 513 kts 153°
2026-05-08 05:13 21.42427 11.30348 36986 ft 513 kts 153°
2026-05-08 05:13 21.36334 11.34355 36980 ft 513 kts 152°
2026-05-08 05:14 21.30245 11.38357 36983 ft 513 kts 152°
2026-05-08 05:14 21.24193 11.42331 36982 ft 513 kts 152°
2026-05-08 05:15 21.18106 11.46325 36985 ft 513 kts 152°
2026-05-08 05:15 21.12013 11.50317 36979 ft 513 kts 152°
2026-05-08 05:16 21.05925 11.54296 36982 ft 513 kts 152°
2026-05-08 05:16 20.99819 11.58280 36969 ft 513 kts 152°
2026-05-08 05:17 20.93769 11.62227 36977 ft 512 kts 152°
2026-05-08 05:17 20.87673 11.66202 36982 ft 512 kts 152°
2026-05-08 05:18 20.81589 11.70163 36984 ft 512 kts 152°
2026-05-08 05:18 20.75506 11.74120 36981 ft 512 kts 152°
2026-05-08 05:19 20.69426 11.78072 36983 ft 511 kts 152°
2026-05-08 05:19 20.63352 11.82017 36973 ft 511 kts 152°
2026-05-08 05:20 20.57267 11.85966 36971 ft 511 kts 152°
2026-05-08 05:20 20.51217 11.89888 36972 ft 511 kts 152°
2026-05-08 05:21 20.45144 11.93825 36973 ft 511 kts 152°
2026-05-08 05:21 20.39065 11.97763 36973 ft 511 kts 151°
2026-05-08 05:22 20.32991 12.01695 36972 ft 510 kts 151°
2026-05-08 05:22 20.26923 12.05620 36967 ft 510 kts 151°
2026-05-08 05:23 20.20854 12.09541 36961 ft 510 kts 151°
2026-05-08 05:23 20.14824 12.13433 36963 ft 510 kts 151°
2026-05-08 05:24 20.08754 12.17348 36963 ft 510 kts 151°
2026-05-08 05:24 20.02687 12.21256 36965 ft 510 kts 151°
2026-05-08 05:25 19.96610 12.25168 36964 ft 510 kts 151°
2026-05-08 05:25 19.90537 12.29074 36964 ft 510 kts 151°
2026-05-08 05:26 19.84500 12.32953 36958 ft 510 kts 151°
2026-05-08 05:26 19.78417 12.36858 36951 ft 510 kts 151°
2026-05-08 05:27 19.72344 12.40753 36956 ft 510 kts 151°
2026-05-08 05:27 19.66264 12.44649 36952 ft 511 kts 151°
2026-05-08 05:28 19.60178 12.48545 36956 ft 511 kts 151°
2026-05-08 05:28 19.54089 12.52440 36953 ft 511 kts 151°
2026-05-08 05:29 19.47994 12.56336 36954 ft 511 kts 151°
2026-05-08 05:29 19.41906 12.60224 36954 ft 511 kts 151°
2026-05-08 05:30 19.35853 12.64085 36953 ft 511 kts 151°
2026-05-08 05:30 19.29758 12.67971 36942 ft 511 kts 151°
2026-05-08 05:31 19.23660 12.71855 36945 ft 511 kts 151°
2026-05-08 05:31 19.17555 12.75740 36944 ft 511 kts 151°
2026-05-08 05:32 19.11454 12.79620 36944 ft 511 kts 151°
2026-05-08 05:32 19.05350 12.83498 36945 ft 511 kts 151°
2026-05-08 05:33 18.99243 12.87251 36943 ft 510 kts 156°
2026-05-08 05:33 18.92676 12.89996 36947 ft 506 kts 166°
2026-05-08 05:34 18.85929 12.92126 36948 ft 506 kts 166°
2026-05-08 05:34 18.79177 12.94278 36942 ft 507 kts 166°
2026-05-08 05:35 18.72426 12.96467 36932 ft 508 kts 166°
2026-05-08 05:35 18.65670 12.98672 36936 ft 508 kts 166°
2026-05-08 05:36 18.58912 13.00874 36935 ft 508 kts 166°
2026-05-08 05:36 18.52160 13.03071 36934 ft 508 kts 166°
2026-05-08 05:37 18.45405 13.05265 36938 ft 507 kts 165°
2026-05-08 05:37 18.38702 13.07441 36935 ft 507 kts 165°
2026-05-08 05:38 18.31949 13.09631 36935 ft 507 kts 165°
2026-05-08 05:38 18.25188 13.11824 36936 ft 508 kts 165°
2026-05-08 05:39 18.18473 13.13998 36928 ft 508 kts 165°
2026-05-08 05:39 18.11712 13.16186 36931 ft 508 kts 165°
2026-05-08 05:40 18.04962 13.18368 36917 ft 508 kts 165°
2026-05-08 05:40 17.98195 13.20555 36929 ft 508 kts 165°
2026-05-08 05:41 17.91431 13.22738 36930 ft 508 kts 165°
2026-05-08 05:41 17.84666 13.24920 36929 ft 508 kts 165°
2026-05-08 05:42 17.77902 13.27101 36927 ft 509 kts 165°
2026-05-08 05:42 17.71132 13.29281 36927 ft 509 kts 165°
2026-05-08 05:43 17.64362 13.31460 36930 ft 509 kts 165°
2026-05-08 05:43 17.57591 13.33638 36920 ft 509 kts 165°
2026-05-08 05:44 17.50822 13.35813 36911 ft 509 kts 165°
2026-05-08 05:44 17.44099 13.37978 36914 ft 508 kts 165°
2026-05-08 05:45 17.37335 13.40160 36924 ft 508 kts 165°
2026-05-08 05:45 17.30573 13.42338 36919 ft 508 kts 165°
2026-05-08 05:46 17.23806 13.44516 36921 ft 508 kts 165°
2026-05-08 05:46 17.17037 13.46692 36920 ft 508 kts 165°
2026-05-08 05:47 17.10263 13.48868 36915 ft 508 kts 165°
2026-05-08 05:47 17.03543 13.51027 36923 ft 508 kts 165°
2026-05-08 05:48 16.96781 13.53196 36904 ft 508 kts 165°
2026-05-08 05:48 16.90021 13.55363 36901 ft 508 kts 165°
2026-05-08 05:49 16.83250 13.57532 36894 ft 508 kts 164°
2026-05-08 05:49 16.76493 13.59695 36898 ft 508 kts 164°
2026-05-08 05:50 16.69730 13.61859 36901 ft 508 kts 164°
2026-05-08 05:50 16.62972 13.64019 36903 ft 507 kts 164°
2026-05-08 05:51 16.56256 13.66164 36890 ft 507 kts 164°
2026-05-08 05:51 16.49494 13.68316 36885 ft 508 kts 164°
2026-05-08 05:52 16.42733 13.70462 36892 ft 508 kts 164°
2026-05-08 05:52 16.35970 13.72611 36890 ft 508 kts 164°
2026-05-08 05:53 16.29207 13.74759 36891 ft 508 kts 164°
2026-05-08 05:53 16.22445 13.76905 36888 ft 508 kts 164°
2026-05-08 05:54 16.15683 13.79048 36890 ft 508 kts 164°
2026-05-08 05:54 16.08970 13.81174 36884 ft 508 kts 164°
2026-05-08 05:55 16.02206 13.83316 36889 ft 508 kts 164°
2026-05-08 05:55 15.95431 13.85460 36892 ft 508 kts 164°
2026-05-08 05:56 15.88663 13.87600 36889 ft 508 kts 164°
2026-05-08 05:56 15.83035 13.89377 36889 ft 508 kts 164°
2026-05-08 05:57 15.76269 13.91513 36889 ft 508 kts 164°
2026-05-08 05:57 15.68408 13.93994 36885 ft 508 kts 164°
2026-05-08 05:58 15.62731 13.95784 36884 ft 508 kts 164°
2026-05-08 05:58 15.56006 13.97903 36886 ft 508 kts 164°
2026-05-08 05:59 15.49242 14.00033 36889 ft 508 kts 164°
2026-05-08 05:59 15.42476 14.02162 36885 ft 508 kts 164°
2026-05-08 06:00 15.35709 14.04290 36881 ft 508 kts 164°
2026-05-08 06:00 15.28946 14.06415 36883 ft 508 kts 164°
2026-05-08 06:01 15.22183 14.08538 36881 ft 507 kts 164°
2026-05-08 06:01 15.15426 14.10659 36882 ft 507 kts 164°
2026-05-08 06:02 15.08665 14.12780 36880 ft 507 kts 164°
2026-05-08 06:02 15.01915 14.14896 36879 ft 507 kts 164°
2026-05-08 06:03 14.95158 14.17012 36880 ft 507 kts 164°
2026-05-08 06:03 14.88414 14.19124 36881 ft 506 kts 164°
2026-05-08 06:04 14.81672 14.21231 36877 ft 506 kts 164°
2026-05-08 06:04 14.74971 14.23326 36878 ft 506 kts 164°
2026-05-08 06:05 14.68221 14.25434 36880 ft 506 kts 164°
2026-05-08 06:05 14.61479 14.27540 36877 ft 506 kts 164°
2026-05-08 06:06 14.54730 14.29645 36879 ft 506 kts 164°
2026-05-08 06:06 14.47985 14.31748 36869 ft 506 kts 164°
2026-05-08 06:07 14.41281 14.33838 36870 ft 506 kts 163°
2026-05-08 06:07 14.34543 14.35934 36870 ft 505 kts 163°
2026-05-08 06:08 14.27802 14.38029 36869 ft 505 kts 163°
2026-05-08 06:08 14.21067 14.40120 36871 ft 505 kts 163°
2026-05-08 06:09 14.14330 14.42212 36871 ft 506 kts 163°
2026-05-08 06:09 14.07585 14.44305 36870 ft 506 kts 163°
2026-05-08 06:10 14.00897 14.46380 36871 ft 506 kts 163°
2026-05-08 06:10 13.94151 14.48470 36870 ft 506 kts 163°
2026-05-08 06:11 13.87414 14.50558 36870 ft 506 kts 163°
2026-05-08 06:11 13.80665 14.52647 36870 ft 506 kts 163°
2026-05-08 06:12 13.73922 14.54732 36869 ft 506 kts 163°
2026-05-08 06:12 13.67174 14.56818 36865 ft 506 kts 163°
2026-05-08 06:13 13.60433 14.58902 36859 ft 506 kts 163°
2026-05-08 06:13 13.53731 14.60972 36863 ft 506 kts 163°
2026-05-08 06:14 13.46987 14.63054 36861 ft 506 kts 163°
2026-05-08 06:14 13.40232 14.65137 36861 ft 506 kts 163°
2026-05-08 06:15 13.33483 14.67218 36862 ft 506 kts 163°
2026-05-08 06:15 13.26729 14.69299 36861 ft 506 kts 163°
2026-05-08 06:16 13.19982 14.71376 36861 ft 506 kts 163°
2026-05-08 06:16 13.13230 14.73454 36863 ft 506 kts 163°
2026-05-08 06:17 13.03114 14.76565 36884 ft 506 kts 163°
2026-05-08 06:17 12.96412 14.78623 36889 ft 506 kts 163°
2026-05-08 06:18 12.89667 14.80695 36892 ft 506 kts 163°
2026-05-08 06:18 12.82900 14.82774 36888 ft 507 kts 163°
2026-05-08 06:19 12.76143 14.84847 36886 ft 507 kts 163°
2026-05-08 06:19 12.69374 14.86925 36887 ft 507 kts 163°
2026-05-08 06:20 12.62602 14.88998 36888 ft 508 kts 163°
2026-05-08 06:20 12.55870 14.91059 36888 ft 508 kts 163°
2026-05-08 06:21 12.49088 14.93135 36892 ft 508 kts 163°
2026-05-08 06:21 12.42304 14.95211 36888 ft 508 kts 163°
2026-05-08 06:22 12.35520 14.97286 36887 ft 508 kts 163°
2026-05-08 06:22 12.28767 14.99350 36893 ft 508 kts 163°
2026-05-08 06:23 12.21978 15.01425 36886 ft 508 kts 163°
2026-05-08 06:23 12.15235 15.03426 36887 ft 508 kts 167°
2026-05-08 06:24 12.08264 15.04488 36893 ft 506 kts 176°
2026-05-08 06:24 12.01234 15.05099 36884 ft 506 kts 176°
2026-05-08 06:25 11.94206 15.05729 36887 ft 507 kts 175°
2026-05-08 06:25 11.87180 15.06394 36890 ft 507 kts 175°
2026-05-08 06:26 11.80160 15.07071 36887 ft 507 kts 175°
2026-05-08 06:26 11.73172 15.07746 36891 ft 507 kts 175°
2026-05-08 06:27 11.66147 15.08421 36886 ft 507 kts 175°
2026-05-08 06:27 11.59123 15.09096 36885 ft 507 kts 175°
2026-05-08 06:28 11.52098 15.09769 36892 ft 507 kts 175°
2026-05-08 06:28 11.45077 15.10443 36887 ft 507 kts 175°
2026-05-08 06:29 11.38051 15.11116 36889 ft 507 kts 175°
2026-05-08 06:29 11.31025 15.11790 36887 ft 506 kts 175°
2026-05-08 06:30 11.24003 15.12462 36885 ft 506 kts 175°
2026-05-08 06:30 11.17039 15.13128 36890 ft 506 kts 175°
2026-05-08 06:31 11.10035 15.13798 36886 ft 505 kts 175°
2026-05-08 06:31 11.03033 15.14468 36887 ft 505 kts 175°
2026-05-08 06:32 10.96037 15.15137 36891 ft 505 kts 175°
2026-05-08 06:32 10.89046 15.15805 36894 ft 504 kts 175°
2026-05-08 06:33 10.82058 15.16471 36893 ft 504 kts 175°
2026-05-08 06:33 10.75076 15.17138 36892 ft 504 kts 175°
2026-05-08 06:34 10.68087 15.17805 36897 ft 504 kts 175°
2026-05-08 06:34 10.61103 15.18471 36903 ft 504 kts 175°
2026-05-08 06:35 10.54166 15.19132 36900 ft 504 kts 175°
2026-05-08 06:35 10.47182 15.19796 36898 ft 504 kts 175°
2026-05-08 06:36 10.40208 15.20461 36898 ft 503 kts 175°
2026-05-08 06:36 10.33236 15.21125 36892 ft 503 kts 174°
2026-05-08 06:37 10.26263 15.21789 36908 ft 502 kts 174°
2026-05-08 06:37 10.19304 15.22450 36911 ft 502 kts 174°
2026-05-08 06:38 10.12322 15.23114 37116 ft 505 kts 174°
2026-05-08 06:38 10.08830 15.23446 37388 ft 504 kts 175°
2026-05-08 06:38 10.05389 15.23773 37658 ft 502 kts 175°
2026-05-08 06:39 10.01917 15.24103 37917 ft 501 kts 175°
2026-05-08 06:39 9.98437 15.24434 38154 ft 501 kts 175°
2026-05-08 06:39 9.94977 15.24763 38422 ft 499 kts 175°
2026-05-08 06:39 9.91519 15.25093 38673 ft 497 kts 175°
2026-05-08 06:40 9.88071 15.25421 38821 ft 498 kts 175°
2026-05-08 06:40 9.84613 15.25750 38864 ft 499 kts 175°
2026-05-08 06:40 9.77695 15.26408 38906 ft 500 kts 175°
2026-05-08 06:41 9.70785 15.27065 38908 ft 497 kts 175°
2026-05-08 06:41 9.63900 15.27720 38921 ft 496 kts 175°
2026-05-08 06:42 9.57024 15.28374 38917 ft 496 kts 175°
2026-05-08 06:42 9.50158 15.29026 38920 ft 496 kts 175°
2026-05-08 06:43 9.43281 15.29679 38919 ft 496 kts 175°
2026-05-08 06:43 9.36447 15.30327 38921 ft 497 kts 175°
2026-05-08 06:44 9.29563 15.30978 38913 ft 497 kts 175°
2026-05-08 06:44 9.22657 15.31631 38921 ft 498 kts 175°
2026-05-08 06:45 9.16918 15.32174 38930 ft 498 kts 175°
2026-05-08 06:45 9.10016 15.32827 38932 ft 498 kts 175°
2026-05-08 06:46 9.03112 15.33480 38930 ft 497 kts 175°
2026-05-08 06:46 8.96221 15.34132 38914 ft 497 kts 175°
2026-05-08 06:47 8.89327 15.34782 38928 ft 497 kts 175°
2026-05-08 06:47 8.82437 15.35433 38927 ft 496 kts 175°
2026-05-08 06:48 8.75598 15.36078 38932 ft 496 kts 175°
2026-05-08 06:48 8.68723 15.36727 38916 ft 496 kts 175°
2026-05-08 06:49 8.61838 15.37376 38938 ft 496 kts 175°
2026-05-08 06:49 8.54968 15.38024 38933 ft 496 kts 175°
2026-05-08 06:50 8.48103 15.38671 38936 ft 496 kts 174°
2026-05-08 06:50 8.41230 15.39319 38931 ft 495 kts 174°
2026-05-08 06:51 8.34370 15.39965 38933 ft 495 kts 174°
2026-05-08 06:51 8.27506 15.40612 38938 ft 495 kts 174°
2026-05-08 06:52 8.20635 15.41259 38940 ft 495 kts 174°
2026-05-08 06:52 8.13827 15.41899 38937 ft 495 kts 174°
2026-05-08 06:53 8.06970 15.42544 38938 ft 494 kts 174°
2026-05-08 06:53 8.00119 15.43188 38937 ft 494 kts 174°
2026-05-08 06:54 7.93270 15.43837 38935 ft 494 kts 174°
2026-05-08 06:54 7.86417 15.44488 38939 ft 494 kts 174°
2026-05-08 06:55 7.79564 15.45138 38936 ft 494 kts 174°
2026-05-08 06:55 7.72718 15.45787 38934 ft 494 kts 174°
2026-05-08 06:56 7.65896 15.46434 38933 ft 494 kts 174°
2026-05-08 06:56 7.59036 15.47084 38936 ft 494 kts 174°
2026-05-08 06:57 7.52181 15.47733 38941 ft 494 kts 174°
2026-05-08 06:57 7.45324 15.48383 38944 ft 495 kts 174°
2026-05-08 06:58 7.38462 15.49032 38947 ft 495 kts 174°
2026-05-08 06:58 7.31636 15.49679 38949 ft 496 kts 174°
2026-05-08 06:59 7.24765 15.50326 38948 ft 496 kts 174°
2026-05-08 06:59 7.17883 15.50968 38944 ft 496 kts 174°
2026-05-08 07:00 7.11016 15.51609 38948 ft 496 kts 174°
2026-05-08 07:00 7.04138 15.52252 38943 ft 496 kts 174°
2026-05-08 07:01 6.97265 15.52895 38946 ft 496 kts 174°
2026-05-08 07:01 6.90391 15.53536 38943 ft 496 kts 174°